Погода в Гутах

Украина / Харьковская область     50°07′55″N   35°20′41″E
темп.,
°C
ветер,
м/с
пор.,
м/с
влажн.,
%
обл.,
%
осадки,
мм/ч
давл.,
гПа
погр.,
м
10 апреля, сб
сб1000:00+5с22604 0.0 102728
03:00+3ссв22673 0.0 102717
06:00+2ссв22705 0.0 102717
09:00+6ссв23545 0.0 1028315
12:00+9св22405 0.0 10271698
15:00+11с22355 0.0 10261916
18:00+11ссв22366 0.0 10251882
21:00+8с22494 0.0 102629
11 апреля, вс
вс1100:00+6ссв33554 0.0 102734
03:00+5ссв33600 0.0 102843
06:00+4ссв34650 0.0 102857
09:00+8св4651100 0.0 1029393
12:00+12св563673 0.0 10291273
15:00+14ссв67325 0.0 10271383
18:00+13св5838100 0.0 1027748
21:00+10св41051100 0.0 1027313
12 апреля, пн
пн1200:00+8св4105873 0.0 1026312
03:00+7ссв41064100 0.0 1025319
06:00+7св4970100 0.0 1024325
09:00+9св5876100 0.0 1023343
12:00+14всв5768100 0.0 1021687
15:00+18в585390 0.0 10201327
18:00+18в3655100 0.0 1019158
21:00+15вюв51359100 0.0 1020331
13 апреля, вт
вт1300:00+12юв487146 0.0 1020198
03:00+10ююз249199 0.0 1020117
06:00+10ююз2488100 0.0 1020155
09:00+10ююз2484100 0.0 1021245
12:00+12ююз347099 0.0 1021543
15:00+14юв236063 0.0 1020821
18:00+14юв346793 0.0 1019264
21:00+12ююв3575100 0.0 1020136
14 апреля, ср
ср1400:00+12ююз2278100 0.0 101949
03:00+12ююз1177100 0.0 101911
06:00+11ююз1275100 0.0 101814
09:00+12ю1270100 0.0 1019110
12:00+14юв226088 0.0 1018622
15:00+17юв245294 0.1 10171622
18:00+15всв1161100 0.0 101624
21:00+14юв2364100 0.0 101755